Location: Blanot
(47.1713°N, 4.2340°E)
Time: 13:56:03
(UTC+00:00)

X-37B - Pass Details

Date: 14 March 2021
Orbit: 380 x 394 km, 45.0° (Epoch: 07 April)

Event Time Altitude Azimuth Distance (km) Brightness Sun altitude
Rises 19:31:56 0° 250° (WSW) 2,269 5.3 -18.3°
Reaches altitude 10° 19:34:02 10° 245° (WSW) 1,418 4.1 -18.7°
Enters shadow 19:36:47 46° 194° (SSW) 536 1.2 -19.1°
